Terminal Aerodrome Forecast
Issued by NWS New Orleans/Baton Rouge, LA

Home | Current Version | Previous Version | Text Only | Print | Product List | Glossary On
Versions: 1 2 3 4 5 6 7 8 9 10 11 12 13 14 15 16 17 18 19 20 21 22 23 24 25
000
FTUS44 KLIX 310500
TAFNEW
TAF
KNEW 310539Z 3106/0106 15005KT P6SM BKN250
     FM311500 16009KT P6SM SCT025 BKN250
     FM010100 14010KT P6SM FEW015 SCT250=

USA.gov is the U.S. government's official web portal to all federal, state and local government web resources and services.